Belichi, Ukraine

8:24 AM EET on December 14, 2017 (GMT +0200)
Belichi

Weather History for 33345 - June, 2013

Change the Weather History Date:

Wednesday, June 12, 2013

  Actual Average Record
Temperature  
Mean Temperature 70 °F -  
Max Temperature 79 °F - - ()
Min Temperature 60 °F - - ()
Cooling Degree Days 4    
Growing Degree Days 20 (Base 50)    
Moisture  
Dew Point 62 °F    
Average Humidity 79    
Maximum Humidity 100    
Minimum Humidity 55    
Precipitation  
Precipitation 0.00 in 0.10 in - ()
Sea Level Pressure  
Sea Level Pressure 29.92 in    
Wind  
Wind Speed 6 mph ()    
Max Wind Speed 16 mph    
Max Gust Speed -    
Visibility 6.4 miles    
Events Fog , Thunderstorm    
T = Trace of Precipitation, MM = Missing Value Source: Averaged Metar Reports

Daily Weather History Graph

Daily Weather History Graph

Search for Another Location

Airport or City:

Trip Planner

Search our weather history database for the weather conditions in past years. The results will help you decide how hot, cold, wet, or windy it might be!

Date:

Astronomy

Jun. 12, 2013 Rise Set
Actual Time 4:46 AM EEST 9:09 PM EEST
Civil Twilight 4:01 AM EEST 9:54 PM EEST
Nautical Twilight 2:55 AM EEST 11:00 PM EEST
Astronomical Twilight 1:29 AM EEST 12:25 AM EEST
Moon 8:23 AM EEST (6/12) 11:13 PM EEST (6/12)
Length of Visible Light 17h 52m
Length of Day
16h 22m
Waxing Crescent, 12% of the Moon is Illuminated
Jun 12
Waxing Crescent
Jun 16
First Quarter
Jun 23
Full
Jun 30
Last Quarter
Jul 8
New

Hourly Weather History & Observations

Time (EEST) Temp. Dew Point Humidity Pressure Visibility Wind Dir Wind Speed Gust Speed Precip Events Conditions
12:00 AM 64 °F 63 °F 94% 29.86 in 12 mi South 6.7 mph - -   Overcast
12:00 AM 64.4 °F 62.6 °F 94% 29.86 in - WSW 4.5 mph - N/A   Clear
12:30 AM 62.6 °F 60.8 °F 94% 29.86 in - Variable 2.2 mph - N/A   Clear
1:00 AM 62.6 °F 60.8 °F 94% 29.86 in - Calm Calm - N/A   Clear
1:30 AM 62.6 °F 60.8 °F 94% 29.86 in 3.7 mi Calm Calm - N/A Fog Shallow Fog
2:00 AM 60.8 °F 60.8 °F 100% 29.86 in 3.1 mi Calm Calm - N/A Fog Shallow Fog
2:30 AM 60.8 °F 60.8 °F 100% 29.86 in 4.3 mi Calm Calm - N/A Fog Shallow Fog
3:00 AM 62 °F 61 °F 94% 29.88 in 12 mi Calm Calm - -   Partly Cloudy
3:00 AM 60.8 °F 60.8 °F 100% 29.89 in 3.7 mi Calm Calm - N/A Fog Shallow Fog
3:30 AM 60.8 °F 60.8 °F 100% 29.89 in - East 2.2 mph - N/A Fog Shallow Fog
4:00 AM 59.0 °F 59.0 °F 100% 29.89 in - East 4.5 mph - N/A Fog Shallow Fog
4:30 AM 59.0 °F 59.0 °F 100% 29.89 in 1.3 mi Calm Calm - N/A Fog Shallow Fog
4:36 AM 59.0 °F 59.0 °F 100% 29.89 in 0.1 mi Calm Calm - N/A   Unknown
4:49 AM 59.0 °F 59.0 °F 100% 29.89 in 1.6 mi East 4.5 mph - N/A   Mist
5:00 AM 60.8 °F 60.8 °F 100% 29.89 in - East 4.5 mph - N/A   Mist
5:10 AM 60.8 °F 60.8 °F 100% 29.89 in - East 2.2 mph - N/A   Unknown
5:22 AM 60.8 °F 60.8 °F 100% 29.89 in 0.2 mi East 2.2 mph - N/A   Unknown
5:30 AM 60.8 °F 60.8 °F 100% 29.89 in 0.3 mi East 4.5 mph - N/A   Unknown
5:42 AM 60.8 °F 60.8 °F 100% 29.89 in - ENE 2.2 mph - N/A   Mist
6:00 AM 64 °F 63 °F 94% 29.90 in 12 mi North 2.2 mph - - Fog Patches of Fog
6:00 AM 60.8 °F 60.8 °F 100% 29.89 in - Variable 2.2 mph - N/A   Mist
6:30 AM 64.4 °F 64.4 °F 100% 29.92 in 5.0 mi North 6.7 mph - N/A   Mostly Cloudy
7:00 AM 66.2 °F 62.6 °F 88% 29.92 in 6.2 mi NNE 6.7 mph - N/A   Mostly Cloudy
7:30 AM 66.2 °F 62.6 °F 88% 29.92 in - NNE 8.9 mph - N/A   Clear
8:00 AM 68.0 °F 62.6 °F 83% 29.92 in - NNE 8.9 mph - N/A   Clear
8:30 AM 68.0 °F 64.4 °F 88% 29.92 in 6.2 mi NNE 8.9 mph - N/A   Scattered Clouds
9:00 AM 69 °F 63 °F 75% 29.92 in 12 mi NNE 6.7 mph - -   Scattered Clouds
9:00 AM 69.8 °F 60.8 °F 73% 29.92 in 6.2 mi North 11.2 mph - N/A   Mostly Cloudy
9:30 AM 69.8 °F 60.8 °F 73% 29.95 in - NNE 8.9 mph - N/A   Clear
10:00 AM 71.6 °F 62.6 °F 73% 29.95 in - NNE 6.7 mph - N/A   Clear
10:30 AM 73.4 °F 62.6 °F 69% 29.95 in - NNE 8.9 mph - N/A   Clear
11:00 AM 73.4 °F 62.6 °F 69% 29.95 in - North 8.9 mph - N/A   Clear
11:30 AM 73.4 °F 62.6 °F 69% 29.95 in - NNE 8.9 mph - N/A   Clear
12:00 PM 75 °F 62 °F 56% 29.93 in 12 mi NNE 8.9 mph - -   Clear
12:00 PM 75.2 °F 64.4 °F 69% 29.95 in - North 8.9 mph - N/A   Clear
12:30 PM 75.2 °F 64.4 °F 69% 29.95 in - NE 8.9 mph - N/A   Clear
1:00 PM 77.0 °F 64.4 °F 65% 29.95 in 6.2 mi NNE 8.9 mph - N/A   Mostly Cloudy
1:30 PM 77.0 °F 64.4 °F 65% 29.95 in 6.2 mi North 6.7 mph - N/A   Mostly Cloudy
2:00 PM 77.0 °F 64.4 °F 65% 29.95 in 6.2 mi NNE 8.9 mph - N/A   Mostly Cloudy
2:30 PM 77.0 °F 64.4 °F 65% 29.95 in 6.2 mi NNE 11.2 mph - N/A   Mostly Cloudy
3:00 PM 77 °F 64 °F 55% 29.92 in 12 mi North 8.9 mph - -   Scattered Clouds
3:00 PM 75.2 °F 64.4 °F 69% 29.95 in 6.2 mi NE 11.2 mph - N/A   Mostly Cloudy
3:30 PM 77.0 °F 64.4 °F 65% 29.92 in 6.2 mi North 13.4 mph - N/A   Mostly Cloudy
4:00 PM 77.0 °F 64.4 °F 65% 29.92 in 6.2 mi North 13.4 mph - N/A   Mostly Cloudy
4:30 PM 77.0 °F 64.4 °F 65% 29.92 in 6.2 mi North 13.4 mph - N/A   Mostly Cloudy
5:00 PM 77.0 °F 64.4 °F 65% 29.92 in 6.2 mi North 13.4 mph - N/A   Mostly Cloudy
5:30 PM 75.2 °F 62.6 °F 65% 29.92 in 6.2 mi North 15.7 mph - N/A   Mostly Cloudy
6:00 PM 75 °F 63 °F 57% 29.92 in 12 mi North 8.9 mph - -   Partly Cloudy
6:00 PM 75.2 °F 62.6 °F 65% 29.95 in 6.2 mi North 13.4 mph - N/A   Mostly Cloudy
6:03 PM 75.2 °F 62.6 °F 65% 29.95 in 6.2 mi North 15.7 mph - N/A Thunderstorm Mostly Cloudy
6:30 PM 75.2 °F 62.6 °F 65% 29.95 in 6.2 mi North 13.4 mph - N/A Thunderstorm Mostly Cloudy
7:00 PM 75.2 °F 62.6 °F 65% 29.95 in 6.2 mi NNE 13.4 mph - N/A Thunderstorm Mostly Cloudy
7:05 PM 75.2 °F 62.6 °F 65% 29.95 in 6.2 mi NNE 13.4 mph - N/A   Mostly Cloudy
7:30 PM 73.4 °F 62.6 °F 69% 29.95 in 6.2 mi North 13.4 mph - N/A   Mostly Cloudy
8:00 PM 71.6 °F 60.8 °F 69% 29.95 in - NNE 13.4 mph - N/A   Clear
8:30 PM 71.6 °F 60.8 °F 69% 29.98 in - NNE 11.2 mph - N/A   Clear
9:00 PM 71 °F 60 °F 59% 29.96 in 12 mi NNE 6.7 mph - -   Partly Cloudy
9:00 PM 71.6 °F 60.8 °F 69% 29.98 in - NNE 11.2 mph - N/A   Clear
9:30 PM 69.8 °F 60.8 °F 73% 29.98 in - NE 11.2 mph - N/A   Clear
10:00 PM 69.8 °F 60.8 °F 73% 29.98 in - NE 11.2 mph - N/A   Clear
10:30 PM 69.8 °F 60.8 °F 73% 29.98 in - NE 11.2 mph - N/A   Clear
11:00 PM 68.0 °F 60.8 °F 78% 30.01 in - NE 11.2 mph - N/A   Clear
11:30 PM 68.0 °F 59.0 °F 73% 30.01 in - NNE 13.4 mph - N/A   Clear